Time,TemperatureF,DewpointF,PressureIn,WindDirection,WindDirectionDegrees,WindSpeedMPH,WindSpeedGustMPH,Humidity,HourlyPrecipIn,Conditions,Clouds,dailyrainin,SoftwareType,DateUTC
2013-06-22 00:01:00,79.3,73.0,30.09,ENE,65,0.0,0.0,81,0.00,RA,,0.00,WeatherDisplay:10.37,2013-06-22 04:01:00,
2013-06-22 00:06:00,79.2,72.9,30.09,ENE,65,0.0,0.0,81,0.00,RA,,0.00,WeatherDisplay:10.37,2013-06-22 04:06:00,
2013-06-22 00:11:00,79.1,73.1,30.09,ENE,66,0.0,0.0,82,0.00,CLR,,0.00,WeatherDisplay:10.37,2013-06-22 04:11:00,
2013-06-22 00:16:00,78.9,72.9,30.09,ENE,66,0.0,0.0,82,0.00,CLR,,0.00,WeatherDisplay:10.37,2013-06-22 04:16:00,
2013-06-22 00:21:00,78.7,73.1,30.09,ENE,65,0.0,0.0,83,0.00,CLR,,0.00,WeatherDisplay:10.37,2013-06-22 04:21:00,
2013-06-22 00:26:00,78.5,73.3,30.09,ENE,66,0.0,0.0,84,0.00,CLR,,0.00,WeatherDisplay:10.37,2013-06-22 04:26:00,
2013-06-22 00:31:00,78.2,73.0,30.08,ENE,65,0.0,0.0,84,0.00,CLR,,0.00,WeatherDisplay:10.37,2013-06-22 04:31:00,
2013-06-22 00:36:00,78.0,73.1,30.08,ENE,65,0.0,0.0,85,0.00,CLR,,0.00,WeatherDisplay:10.37,2013-06-22 04:36:00,
2013-06-22 00:41:00,77.8,73.3,30.08,ENE,65,0.0,0.0,86,0.00,CLR,,0.00,WeatherDisplay:10.37,2013-06-22 04:41:00,
2013-06-22 00:46:00,77.6,73.1,30.08,ENE,65,0.0,0.0,86,0.00,CLR,,0.00,WeatherDisplay:10.37,2013-06-22 04:46:00,
2013-06-22 00:51:00,77.6,73.4,30.08,ENE,66,0.0,0.0,87,0.00,CLR,,0.00,WeatherDisplay:10.37,2013-06-22 04:51:00,
2013-06-22 00:56:00,77.6,73.4,30.08,ENE,65,0.0,0.0,87,0.00,CLR,,0.00,WeatherDisplay:10.37,2013-06-22 04:56:00,
2013-06-22 01:01:00,77.8,73.6,30.08,ENE,66,0.0,0.0,87,0.00,CLR,,0.00,WeatherDisplay:10.37,2013-06-22 05:01:00,
2013-06-22 01:06:00,78.2,74.0,30.07,ENE,66,0.0,0.0,87,0.00,CLR,,0.00,WeatherDisplay:10.37,2013-06-22 05:06:00,
2013-06-22 01:11:00,78.4,73.9,30.07,ENE,66,0.0,0.0,86,0.00,CLR,,0.00,WeatherDisplay:10.37,2013-06-22 05:11:00,
2013-06-22 01:16:00,78.5,74.0,30.07,ENE,66,0.0,0.0,86,0.00,CLR,,0.00,WeatherDisplay:10.37,2013-06-22 05:16:00,
2013-06-22 01:21:00,78.6,74.1,30.06,ENE,65,0.0,0.0,86,0.00,CLR,,0.00,WeatherDisplay:10.37,2013-06-22 05:21:00,
2013-06-22 01:26:00,78.6,74.1,30.07,ENE,66,0.0,0.0,86,0.00,CLR,,0.00,WeatherDisplay:10.37,2013-06-22 05:26:00,
2013-06-22 01:31:00,78.5,74.0,30.06,ENE,65,0.0,0.0,86,0.00,CLR,,0.00,WeatherDisplay:10.37,2013-06-22 05:31:00,
2013-06-22 01:36:00,78.4,73.9,30.06,ENE,65,0.0,0.0,86,0.00,CLR,,0.00,WeatherDisplay:10.37,2013-06-22 05:36:00,
2013-06-22 01:41:00,78.2,74.0,30.06,ENE,65,0.0,0.0,87,0.00,CLR,,0.00,WeatherDisplay:10.37,2013-06-22 05:41:00,
2013-06-22 01:46:00,77.9,73.7,30.06,ENE,66,0.0,0.0,87,0.00,CLR,,0.00,WeatherDisplay:10.37,2013-06-22 05:46:00,
2013-06-22 01:51:00,77.9,73.7,30.06,ENE,66,0.0,0.0,87,0.00,CLR,,0.00,WeatherDisplay:10.37,2013-06-22 05:51:00,
2013-06-22 01:56:00,78.1,73.9,30.05,ENE,65,0.0,0.0,87,0.00,CLR,,0.00,WeatherDisplay:10.37,2013-06-22 05:56:00,
2013-06-22 02:01:00,78.2,74.0,30.05,ENE,65,0.0,0.0,87,0.00,CLR,,0.00,WeatherDisplay:10.37,2013-06-22 06:01:00,
2013-06-22 02:06:00,78.1,73.9,30.05,ENE,66,0.0,0.0,87,0.00,CLR,,0.00,WeatherDisplay:10.37,2013-06-22 06:06:00,
2013-06-22 02:11:00,78.1,73.9,30.05,ENE,65,0.0,0.0,87,0.00,CLR,,0.00,WeatherDisplay:10.37,2013-06-22 06:11:00,
2013-06-22 02:16:00,78.1,73.9,30.05,ENE,67,0.0,0.0,87,0.00,CLR,,0.00,WeatherDisplay:10.37,2013-06-22 06:16:00,
2013-06-22 02:21:00,78.3,74.1,30.04,ENE,66,0.0,0.0,87,0.00,CLR,,0.00,WeatherDisplay:10.37,2013-06-22 06:21:00,
2013-06-22 02:26:00,78.3,74.1,30.04,ENE,65,0.0,0.0,87,0.00,CLR,,0.00,WeatherDisplay:10.37,2013-06-22 06:26:00,
2013-06-22 02:31:00,78.4,73.9,30.04,ENE,66,0.0,0.0,86,0.00,CLR,,0.00,WeatherDisplay:10.37,2013-06-22 06:31:00,
2013-06-22 02:36:00,78.6,74.1,30.04,ENE,66,0.0,0.0,86,0.00,CLR,,0.00,WeatherDisplay:10.37,2013-06-22 06:36:00,
2013-06-22 02:41:00,78.7,73.8,30.04,ENE,66,0.0,0.0,85,0.00,CLR,,0.00,WeatherDisplay:10.37,2013-06-22 06:41:00,
2013-06-22 02:46:00,78.8,73.9,30.04,ENE,66,0.0,0.0,85,0.00,CLR,,0.00,WeatherDisplay:10.37,2013-06-22 06:46:00,
2013-06-22 02:51:00,78.7,73.8,30.04,ENE,65,0.0,0.0,85,0.00,CLR,,0.00,WeatherDisplay:10.37,2013-06-22 06:51:00,
2013-06-22 02:56:00,78.7,73.8,30.04,ENE,66,0.0,0.0,85,0.00,CLR,,0.00,WeatherDisplay:10.37,2013-06-22 06:56:00,
2013-06-22 03:01:00,78.4,73.9,30.03,ENE,66,0.0,0.0,86,0.00,CLR,,0.00,WeatherDisplay:10.37,2013-06-22 07:01:00,
2013-06-22 03:06:00,78.1,73.6,30.03,ENE,66,0.0,0.0,86,0.00,CLR,,0.00,WeatherDisplay:10.37,2013-06-22 07:06:00,
2013-06-22 03:11:00,77.9,73.7,30.03,ENE,66,0.0,0.0,87,0.00,CLR,,0.00,WeatherDisplay:10.37,2013-06-22 07:11:00,
2013-06-22 03:16:00,77.7,73.5,30.03,ENE,67,0.0,0.0,87,0.00,CLR,,0.00,WeatherDisplay:10.37,2013-06-22 07:16:00,
2013-06-22 03:21:00,77.5,73.3,30.03,ENE,65,0.0,0.0,87,0.00,CLR,,0.00,WeatherDisplay:10.37,2013-06-22 07:21:00,
2013-06-22 03:26:00,77.3,73.5,30.03,ENE,66,0.0,0.0,88,0.00,CLR,,0.00,WeatherDisplay:10.37,2013-06-22 07:26:00,
2013-06-22 03:31:00,77.1,73.6,30.03,ENE,66,0.0,0.0,89,0.00,CLR,,0.00,WeatherDisplay:10.37,2013-06-22 07:31:00,
2013-06-22 03:36:00,77.0,73.5,30.03,ENE,66,0.0,0.0,89,0.00,CLR,,0.00,WeatherDisplay:10.37,2013-06-22 07:36:00,
2013-06-22 03:41:00,76.9,73.7,30.03,ENE,66,0.0,0.0,90,0.00,CLR,,0.00,WeatherDisplay:10.37,2013-06-22 07:41:00,
2013-06-22 03:46:00,76.9,73.7,30.03,ENE,66,0.0,0.0,90,0.00,CLR,,0.00,WeatherDisplay:10.37,2013-06-22 07:46:00,
2013-06-22 03:51:00,76.8,73.6,30.03,ENE,66,0.0,0.0,90,0.00,CLR,,0.00,WeatherDisplay:10.37,2013-06-22 07:51:00,
2013-06-22 03:56:00,76.8,74.0,30.03,ENE,66,0.0,0.0,91,0.00,CLR,,0.00,WeatherDisplay:10.37,2013-06-22 07:56:00,
2013-06-22 04:01:00,76.7,73.9,30.03,ENE,65,0.0,0.0,91,0.00,CLR,,0.00,WeatherDisplay:10.37,2013-06-22 08:01:00,
2013-06-22 04:06:00,76.5,73.7,30.03,ENE,66,0.0,0.0,91,0.00,CLR,,0.00,WeatherDisplay:10.37,2013-06-22 08:06:00,
2013-06-22 04:11:00,76.4,73.6,30.03,ENE,66,0.0,0.0,91,0.00,CLR,,0.00,WeatherDisplay:10.37,2013-06-22 08:11:00,
2013-06-22 04:16:00,76.3,73.8,30.03,ENE,65,0.0,0.0,92,0.00,CLR,,0.00,WeatherDisplay:10.37,2013-06-22 08:16:00,
2013-06-22 04:21:00,76.2,73.7,30.03,ENE,67,0.0,0.0,92,0.00,CLR,,0.00,WeatherDisplay:10.37,2013-06-22 08:21:00,
2013-06-22 04:26:00,76.1,73.6,30.03,ENE,66,0.0,0.0,92,0.00,CLR,,0.00,WeatherDisplay:10.37,2013-06-22 08:26:00,
2013-06-22 04:31:00,76.1,73.6,30.03,ENE,66,0.0,0.0,92,0.00,CLR,,0.00,WeatherDisplay:10.37,2013-06-22 08:31:00,
2013-06-22 04:36:00,76.0,73.8,30.03,ENE,66,0.0,0.0,93,0.00,CLR,,0.00,WeatherDisplay:10.37,2013-06-22 08:36:00,
2013-06-22 04:41:00,76.0,73.8,30.03,ENE,66,0.0,0.0,93,0.00,CLR,,0.00,WeatherDisplay:10.37,2013-06-22 08:41:00,
2013-06-22 04:46:00,75.9,73.7,30.03,ENE,67,0.0,0.0,93,0.00,CLR,,0.00,WeatherDisplay:10.37,2013-06-22 08:46:00,
2013-06-22 04:51:00,75.8,73.6,30.03,ENE,67,0.0,0.0,93,0.00,CLR,,0.00,WeatherDisplay:10.37,2013-06-22 08:51:00,
2013-06-22 04:56:00,75.7,73.8,30.03,ENE,66,0.0,0.0,94,0.00,CLR,,0.00,WeatherDisplay:10.37,2013-06-22 08:56:00,
2013-06-22 05:01:00,75.6,73.8,30.03,ENE,66,0.0,0.0,94,0.00,CLR,,0.00,WeatherDisplay:10.37,2013-06-22 09:01:00,
2013-06-22 05:06:00,75.4,73.2,30.03,ENE,66,0.0,0.0,93,0.00,CLR,,0.00,WeatherDisplay:10.37,2013-06-22 09:06:00,
2013-06-22 05:11:00,75.3,73.5,30.03,ENE,67,0.0,0.0,94,0.00,CLR,,0.00,WeatherDisplay:10.37,2013-06-22 09:11:00,
2013-06-22 05:16:00,75.2,73.4,30.04,ENE,65,0.0,0.0,94,0.00,CLR,,0.00,WeatherDisplay:10.37,2013-06-22 09:16:00,
2013-06-22 05:21:00,75.1,73.3,30.03,ENE,66,0.0,0.0,94,0.00,CLR,,0.00,WeatherDisplay:10.37,2013-06-22 09:21:00,
2013-06-22 05:27:00,75.0,73.2,30.03,ENE,66,0.0,0.0,94,0.00,CLR,,0.00,WeatherDisplay:10.37,2013-06-22 09:27:00,
2013-06-22 05:32:00,74.9,73.1,30.03,ENE,65,0.0,0.0,94,0.00,CLR,,0.00,WeatherDisplay:10.37,2013-06-22 09:32:00,
2013-06-22 05:37:00,74.8,73.0,30.03,ENE,65,0.0,0.0,94,0.00,CLR,,0.00,WeatherDisplay:10.37,2013-06-22 09:37:00,
2013-06-22 05:42:00,74.7,72.9,30.03,ENE,65,0.0,0.0,94,0.00,CLR,,0.00,WeatherDisplay:10.37,2013-06-22 09:42:00,
2013-06-22 05:47:00,74.6,72.8,30.03,ENE,66,0.0,0.0,94,0.00,CLR,,0.00,WeatherDisplay:10.37,2013-06-22 09:47:00,
2013-06-22 05:52:00,74.5,73.0,30.04,ENE,67,0.0,0.0,95,0.00,CLR,,0.00,WeatherDisplay:10.37,2013-06-22 09:52:00,
2013-06-22 05:57:00,74.5,73.0,30.04,ENE,66,0.0,0.0,95,0.00,CLR,,0.00,WeatherDisplay:10.37,2013-06-22 09:57:00,
2013-06-22 06:02:00,74.4,72.9,30.04,ENE,65,0.0,0.0,95,0.00,CLR,,0.00,WeatherDisplay:10.37,2013-06-22 10:02:00,
2013-06-22 06:07:00,74.3,72.8,30.04,ENE,67,0.0,0.0,95,0.00,CLR,,0.00,WeatherDisplay:10.37,2013-06-22 10:07:00,
2013-06-22 06:12:00,74.3,72.8,30.03,ENE,66,0.0,0.0,95,0.00,CLR,,0.00,WeatherDisplay:10.37,2013-06-22 10:12:00,
2013-06-22 06:17:00,74.2,72.7,30.03,ENE,66,0.0,0.0,95,0.00,CLR,,0.00,WeatherDisplay:10.37,2013-06-22 10:17:00,
2013-06-22 06:22:00,74.1,72.6,30.03,ENE,67,0.0,0.0,95,0.00,CLR,,0.00,WeatherDisplay:10.37,2013-06-22 10:22:00,
2013-06-22 06:27:00,74.2,72.7,30.03,ENE,65,0.0,0.0,95,0.00,CLR,,0.00,WeatherDisplay:10.37,2013-06-22 10:27:00,
2013-06-22 06:32:00,74.3,73.1,30.04,ENE,65,0.0,0.0,96,0.00,CLR,,0.00,WeatherDisplay:10.37,2013-06-22 10:32:00,
2013-06-22 06:37:00,74.7,73.5,30.04,ENE,67,0.0,0.0,96,0.00,CLR,,0.00,WeatherDisplay:10.37,2013-06-22 10:37:00,
2013-06-22 06:42:00,74.8,73.3,30.04,ENE,66,0.0,0.0,95,0.00,CLR,,0.00,WeatherDisplay:10.37,2013-06-22 10:42:00,
2013-06-22 06:47:00,74.8,73.3,30.05,ENE,67,0.0,0.0,95,0.00,CLR,,0.00,WeatherDisplay:10.37,2013-06-22 10:47:00,
2013-06-22 06:52:00,74.8,73.6,30.05,ENE,67,0.0,0.0,96,0.00,CLR,,0.00,WeatherDisplay:10.37,2013-06-22 10:52:00,
2013-06-22 06:57:00,74.7,73.5,30.05,ENE,67,0.0,0.0,96,0.00,CLR,,0.00,WeatherDisplay:10.37,2013-06-22 10:57:00,
2013-06-22 07:02:00,74.8,73.6,30.05,ENE,67,0.0,0.0,96,0.00,CLR,,0.00,WeatherDisplay:10.37,2013-06-22 11:02:00,
2013-06-22 07:07:00,74.9,73.7,30.05,ENE,67,0.0,0.0,96,0.00,CLR,,0.00,WeatherDisplay:10.37,2013-06-22 11:07:00,
2013-06-22 07:12:00,75.0,73.8,30.05,ENE,67,0.0,0.0,96,0.00,CLR,,0.00,WeatherDisplay:10.37,2013-06-22 11:12:00,
2013-06-22 07:17:00,75.1,73.9,30.05,ENE,65,0.0,0.0,96,0.00,CLR,,0.00,WeatherDisplay:10.37,2013-06-22 11:17:00,
2013-06-22 07:22:00,75.2,74.0,30.05,ENE,67,0.0,0.0,96,0.00,CLR,,0.00,WeatherDisplay:10.37,2013-06-22 11:22:00,
2013-06-22 07:27:00,75.4,74.2,30.06,ENE,67,0.0,0.0,96,0.00,CLR,,0.00,WeatherDisplay:10.37,2013-06-22 11:27:00,
2013-06-22 07:32:00,75.5,74.3,30.06,ENE,67,0.0,0.0,96,0.00,CLR,,0.00,WeatherDisplay:10.37,2013-06-22 11:32:00,
2013-06-22 07:37:00,75.7,74.5,30.06,ENE,67,0.0,0.0,96,0.00,CLR,,0.00,WeatherDisplay:10.37,2013-06-22 11:37:00,
2013-06-22 07:42:00,75.9,74.7,30.06,ENE,65,0.0,0.0,96,0.00,CLR,,0.00,WeatherDisplay:10.37,2013-06-22 11:42:00,
2013-06-22 07:47:00,76.3,75.1,30.06,ENE,67,0.0,0.0,96,0.00,CLR,,0.00,WeatherDisplay:10.37,2013-06-22 11:47:00,
2013-06-22 07:52:00,76.9,75.4,30.06,ENE,67,0.0,0.0,95,0.00,CLR,,0.00,WeatherDisplay:10.37,2013-06-22 11:52:00,
2013-06-22 07:57:00,77.5,75.6,30.06,ENE,67,0.0,0.0,94,0.00,CLR,,0.00,WeatherDisplay:10.37,2013-06-22 11:57:00,
2013-06-22 08:02:00,78.1,75.9,30.06,ESE,115,0.0,0.0,93,0.00,CLR,,0.00,WeatherDisplay:10.37,2013-06-22 12:02:00,
2013-06-22 08:07:00,78.7,75.8,30.06,ESE,115,0.0,0.0,91,0.00,CLR,,0.00,WeatherDisplay:10.37,2013-06-22 12:07:00,
2013-06-22 08:12:00,79.3,75.8,30.06,ESE,115,1.2,0.0,89,0.00,CLR,,0.00,WeatherDisplay:10.37,2013-06-22 12:12:00,
2013-06-22 08:17:00,79.8,75.6,30.06,ESE,115,0.0,0.0,87,0.00,CLR,,0.00,WeatherDisplay:10.37,2013-06-22 12:17:00,
2013-06-22 08:22:00,80.3,75.7,30.07,ESE,115,1.2,0.0,86,0.00,CLR,,0.00,WeatherDisplay:10.37,2013-06-22 12:22:00,
2013-06-22 08:27:00,80.8,75.9,30.07,ESE,113,1.2,1.2,85,0.00,CLR,,0.00,WeatherDisplay:10.37,2013-06-22 12:27:00,
2013-06-22 08:32:00,81.3,75.3,30.07,ESE,113,0.0,0.0,82,0.00,CLR,,0.00,WeatherDisplay:10.37,2013-06-22 12:32:00,
2013-06-22 08:37:00,81.6,75.6,30.07,ESE,114,3.5,3.5,82,0.00,CLR,,0.00,WeatherDisplay:10.37,2013-06-22 12:37:00,
2013-06-22 08:42:00,81.9,75.9,30.07,SE,138,0.0,0.0,82,0.00,CLR,,0.00,WeatherDisplay:10.37,2013-06-22 12:42:00,
2013-06-22 08:47:00,82.1,75.7,30.07,SE,139,4.0,4.0,81,0.00,CLR,,0.00,WeatherDisplay:10.37,2013-06-22 12:47:00,
2013-06-22 08:52:00,82.5,76.1,30.07,SE,139,1.2,0.0,81,0.00,CLR,,0.00,WeatherDisplay:10.37,2013-06-22 12:52:00,
2013-06-22 08:57:00,82.8,76.0,30.08,NNE,24,3.5,3.5,80,0.00,CLR,,0.00,WeatherDisplay:10.37,2013-06-22 12:57:00,
2013-06-22 09:02:00,82.9,75.3,30.08,NE,42,3.5,3.5,78,0.00,CLR,,0.00,WeatherDisplay:10.37,2013-06-22 13:02:00,
2013-06-22 09:07:00,83.2,75.6,30.08,NE,42,0.0,0.0,78,0.00,CLR,,0.00,WeatherDisplay:10.37,2013-06-22 13:07:00,
2013-06-22 09:12:00,83.1,75.1,30.08,SSE,149,5.8,5.8,77,0.00,CLR,,0.00,WeatherDisplay:10.37,2013-06-22 13:12:00,
2013-06-22 09:17:00,83.4,75.0,30.08,SSE,148,3.5,3.5,76,0.00,CLR,,0.00,WeatherDisplay:10.37,2013-06-22 13:17:00,
2013-06-22 09:22:00,83.6,74.8,30.08,SE,146,11.0,11.0,75,0.00,CLR,,0.00,WeatherDisplay:10.37,2013-06-22 13:22:00,
2013-06-22 09:27:00,83.8,73.8,30.08,SE,146,4.0,4.0,72,0.00,CLR,,0.00,WeatherDisplay:10.37,2013-06-22 13:27:00,
2013-06-22 09:32:00,83.9,74.3,30.08,SE,146,2.3,2.3,73,0.00,CLR,,0.00,WeatherDisplay:10.37,2013-06-22 13:32:00,
2013-06-22 09:37:00,83.9,73.9,30.08,NE,51,3.5,3.5,72,0.00,CLR,,0.00,WeatherDisplay:10.37,2013-06-22 13:37:00,
2013-06-22 09:42:00,84.1,74.1,30.08,NE,49,3.5,3.5,72,0.00,CLR,,0.00,WeatherDisplay:10.37,2013-06-22 13:42:00,
2013-06-22 09:47:00,84.2,73.8,30.08,SSE,150,4.6,4.6,71,0.00,CLR,,0.00,WeatherDisplay:10.37,2013-06-22 13:47:00,
2013-06-22 09:52:00,84.5,74.5,30.08,SE,141,19.6,19.6,72,0.00,CLR,,0.00,WeatherDisplay:10.37,2013-06-22 13:52:00,
2013-06-22 09:57:00,84.7,74.3,30.08,SE,140,3.5,3.5,71,0.00,CLR,,0.00,WeatherDisplay:10.37,2013-06-22 13:57:00,
2013-06-22 10:02:00,84.9,74.4,30.08,SE,133,5.8,5.8,71,0.00,CLR,,0.00,WeatherDisplay:10.37,2013-06-22 14:02:00,
2013-06-22 10:07:00,84.9,74.0,30.08,SSE,161,28.8,28.8,70,0.00,CLR,,0.00,WeatherDisplay:10.37,2013-06-22 14:07:00,
2013-06-22 10:12:00,84.9,73.6,30.08,SSE,159,20.0,20.0,69,0.00,CLR,,0.00,WeatherDisplay:10.37,2013-06-22 14:12:00,
2013-06-22 10:17:00,85.1,73.8,30.08,SSE,168,18.4,18.4,69,0.00,CLR,,0.00,WeatherDisplay:10.37,2013-06-22 14:17:00,
2013-06-22 10:22:00,85.4,74.5,30.08,SSE,153,3.0,3.0,70,0.00,CLR,,0.00,WeatherDisplay:10.37,2013-06-22 14:22:00,
2013-06-22 10:27:00,85.6,73.8,30.08,SSE,155,10.4,10.4,68,0.00,CLR,,0.00,WeatherDisplay:10.37,2013-06-22 14:27:00,
2013-06-22 10:32:00,85.8,73.6,30.08,NE,55,5.8,5.8,67,0.00,CLR,,0.00,WeatherDisplay:10.37,2013-06-22 14:32:00,
2013-06-22 10:37:00,86.2,74.8,30.08,East,86,13.8,13.8,69,0.00,CLR,,0.00,WeatherDisplay:10.37,2013-06-22 14:37:00,
2013-06-22 10:42:00,86.4,73.2,30.08,East,84,5.8,5.8,65,0.00,CLR,,0.00,WeatherDisplay:10.37,2013-06-22 14:42:00,
2013-06-22 10:47:00,86.5,75.5,30.08,NE,49,31.1,31.1,70,0.00,CLR,,0.00,WeatherDisplay:10.37,2013-06-22 14:47:00,
2013-06-22 10:52:00,86.5,74.2,30.08,SE,126,1.2,1.2,67,0.00,CLR,,0.00,WeatherDisplay:10.37,2013-06-22 14:52:00,
2013-06-22 10:57:00,86.6,74.8,30.08,ENE,63,23.0,23.0,68,0.00,CLR,,0.00,WeatherDisplay:10.37,2013-06-22 14:57:00,
2013-06-22 11:02:00,87.1,75.3,30.08,ENE,62,1.2,1.2,68,0.00,CLR,,0.00,WeatherDisplay:10.37,2013-06-22 15:02:00,
2013-06-22 11:07:00,87.5,74.3,30.08,SSE,165,4.6,0.0,65,0.00,CLR,,0.00,WeatherDisplay:10.37,2013-06-22 15:07:00,
2013-06-22 11:12:00,88.0,74.3,30.08,SSE,166,1.2,1.2,64,0.00,CLR,,0.00,WeatherDisplay:10.37,2013-06-22 15:12:00,
2013-06-22 11:17:00,88.1,74.4,30.08,SSE,148,8.0,8.0,64,0.00,CLR,,0.00,WeatherDisplay:10.37,2013-06-22 15:17:00,
2013-06-22 11:22:00,87.4,74.6,30.08,SSE,148,0.0,0.0,66,0.00,CLR,,0.00,WeatherDisplay:10.37,2013-06-22 15:22:00,
2013-06-22 11:27:00,87.8,74.1,30.08,SSE,148,0.0,0.0,64,0.00,CLR,,0.00,WeatherDisplay:10.37,2013-06-22 15:27:00,
2013-06-22 11:32:00,88.6,73.9,30.08,SSE,152,2.3,2.3,62,0.00,CLR,,0.00,WeatherDisplay:10.37,2013-06-22 15:32:00,
2013-06-22 11:37:00,89.2,75.0,30.08,SSE,152,3.5,0.0,63,0.00,CLR,,0.00,WeatherDisplay:10.37,2013-06-22 15:37:00,
2013-06-22 11:42:00,89.7,73.5,30.08,East,90,3.5,0.0,59,0.00,CLR,,0.00,WeatherDisplay:10.37,2013-06-22 15:42:00,
2013-06-22 11:47:00,90.5,75.2,30.09,East,92,1.2,1.2,61,0.00,CLR,,0.00,WeatherDisplay:10.37,2013-06-22 15:47:00,
2013-06-22 11:52:00,90.5,73.2,30.09,East,93,4.0,4.0,57,0.00,CLR,,0.00,WeatherDisplay:10.37,2013-06-22 15:52:00,
2013-06-22 11:57:00,90.8,74.5,30.09,NE,34,4.6,4.6,59,0.00,CLR,,0.00,WeatherDisplay:10.37,2013-06-22 15:57:00,
2013-06-22 12:02:00,90.7,72.8,30.09,NE,50,2.3,2.3,56,0.00,CLR,,0.00,WeatherDisplay:10.37,2013-06-22 16:02:00,
2013-06-22 12:07:00,90.7,74.4,30.09,ENE,74,2.0,2.0,59,0.00,CLR,,0.00,WeatherDisplay:10.37,2013-06-22 16:07:00,
2013-06-22 12:12:00,90.8,74.0,30.09,SSE,160,5.8,5.8,58,0.00,CLR,,0.00,WeatherDisplay:10.37,2013-06-22 16:12:00,
2013-06-22 12:17:00,91.1,74.3,30.09,SSE,155,2.3,2.3,58,0.00,CLR,,0.00,WeatherDisplay:10.37,2013-06-22 16:17:00,
2013-06-22 12:22:00,91.1,73.7,30.09,ENE,63,2.3,2.3,57,0.00,CLR,,0.00,WeatherDisplay:10.37,2013-06-22 16:22:00,
2013-06-22 12:27:00,91.4,75.1,30.09,ENE,72,3.5,3.5,59,0.00,CLR,,0.00,WeatherDisplay:10.37,2013-06-22 16:27:00,
2013-06-22 12:32:00,91.3,75.0,30.09,ENE,72,1.2,0.0,59,0.00,CLR,,0.00,WeatherDisplay:10.37,2013-06-22 16:32:00,
2013-06-22 12:37:00,91.1,74.8,30.09,ENE,74,1.2,1.2,59,0.00,CLR,,0.00,WeatherDisplay:10.37,2013-06-22 16:37:00,
2013-06-22 12:42:00,91.7,75.8,30.08,SSE,161,7.0,7.0,60,0.00,CLR,,0.00,WeatherDisplay:10.37,2013-06-22 16:42:00,
2013-06-22 12:47:00,91.3,75.0,30.09,SSE,156,3.5,3.5,59,0.00,CLR,,0.00,WeatherDisplay:10.37,2013-06-22 16:47:00,
2013-06-22 12:52:00,90.9,74.6,30.09,SSE,156,10.4,10.4,59,0.00,CLR,,0.00,WeatherDisplay:10.37,2013-06-22 16:52:00,
2013-06-22 12:57:00,90.4,75.6,30.08,ENE,78,4.0,4.0,62,0.00,CLR,,0.00,WeatherDisplay:10.37,2013-06-22 16:57:00,
2013-06-22 13:02:00,91.0,74.2,30.08,ENE,75,2.0,2.0,58,0.00,CLR,,0.00,WeatherDisplay:10.37,2013-06-22 17:02:00,
2013-06-22 13:07:00,91.9,76.5,30.09,ENE,67,4.0,4.0,61,0.00,CLR,,0.00,WeatherDisplay:10.37,2013-06-22 17:07:00,
2013-06-22 13:12:00,92.9,75.4,30.09,SSE,163,7.0,7.0,57,0.00,CLR,,0.00,WeatherDisplay:10.37,2013-06-22 17:12:00,
2013-06-22 13:17:00,91.9,75.0,30.09,SSE,151,3.0,3.0,58,0.00,CLR,,0.00,WeatherDisplay:10.37,2013-06-22 17:17:00,
2013-06-22 13:22:00,91.4,75.1,30.09,ENE,71,2.3,2.3,59,0.00,CLR,,0.00,WeatherDisplay:10.37,2013-06-22 17:22:00,
2013-06-22 13:27:00,92.9,76.5,30.08,NE,40,4.6,4.6,59,0.00,CLR,,0.00,WeatherDisplay:10.37,2013-06-22 17:27:00,
2013-06-22 13:32:00,93.6,75.5,30.08,East,83,2.3,2.3,56,0.00,CLR,,0.00,WeatherDisplay:10.37,2013-06-22 17:32:00,
2013-06-22 13:37:00,92.8,75.8,30.08,East,86,2.0,2.0,58,0.00,CLR,,0.00,WeatherDisplay:10.37,2013-06-22 17:37:00,
2013-06-22 13:42:00,91.9,75.5,30.08,SE,138,1.2,0.0,59,0.00,CLR,,0.00,WeatherDisplay:10.37,2013-06-22 17:42:00,
2013-06-22 13:47:00,92.4,76.0,30.08,SE,137,1.0,0.0,59,0.00,CLR,,0.00,WeatherDisplay:10.37,2013-06-22 17:47:00,
2013-06-22 13:52:00,94.0,76.4,30.08,SE,142,10.0,10.0,57,0.00,CLR,,0.00,WeatherDisplay:10.37,2013-06-22 17:52:00,
2013-06-22 13:57:00,93.8,76.3,30.08,SE,146,3.5,3.5,57,0.00,CLR,,0.00,WeatherDisplay:10.37,2013-06-22 17:57:00,
2013-06-22 14:02:00,94.8,76.1,30.07,NE,50,4.6,4.6,55,0.00,CLR,,0.00,WeatherDisplay:10.37,2013-06-22 18:02:00,
2013-06-22 14:07:00,93.9,74.7,30.07,NE,51,4.0,4.0,54,0.00,CLR,,0.00,WeatherDisplay:10.37,2013-06-22 18:07:00,
2013-06-22 14:12:00,93.1,75.6,30.07,NE,45,4.0,4.0,57,0.00,CLR,,0.00,WeatherDisplay:10.37,2013-06-22 18:12:00,
2013-06-22 14:17:00,91.8,74.4,30.07,East,96,3.5,3.5,57,0.00,CLR,,0.00,WeatherDisplay:10.37,2013-06-22 18:17:00,
2013-06-22 14:22:00,92.1,74.1,30.07,SE,141,6.9,6.9,56,0.00,CLR,,0.00,WeatherDisplay:10.37,2013-06-22 18:22:00,
2013-06-22 14:27:00,91.9,75.0,30.07,NE,53,3.5,3.5,58,0.00,CLR,,0.00,WeatherDisplay:10.37,2013-06-22 18:27:00,
2013-06-22 14:32:00,92.4,75.0,30.07,SE,133,4.0,4.0,57,0.00,CLR,,0.00,WeatherDisplay:10.37,2013-06-22 18:32:00,
2013-06-22 14:37:00,92.7,75.8,30.07,SE,126,4.0,4.0,58,0.00,CLR,,0.00,WeatherDisplay:10.37,2013-06-22 18:37:00,
2013-06-22 14:42:00,92.2,75.3,30.07,ESE,119,8.1,8.1,58,0.00,CLR,,0.00,WeatherDisplay:10.37,2013-06-22 18:42:00,
2013-06-22 14:47:00,91.8,75.9,30.06,NNE,28,4.6,4.6,60,0.00,CLR,,0.00,WeatherDisplay:10.37,2013-06-22 18:47:00,
2013-06-22 14:52:00,92.4,75.0,30.06,NE,46,3.5,3.5,57,0.00,CLR,,0.00,WeatherDisplay:10.37,2013-06-22 18:52:00,
2013-06-22 14:57:00,92.3,75.9,30.06,ENE,64,3.5,3.5,59,0.00,CLR,,0.00,WeatherDisplay:10.37,2013-06-22 18:57:00,
2013-06-22 15:02:00,91.9,75.0,30.06,ENE,57,3.5,3.5,58,0.00,CLR,,0.00,WeatherDisplay:10.37,2013-06-22 19:02:00,
2013-06-22 15:07:00,91.4,74.5,30.06,East,93,4.0,4.0,58,0.00,CLR,,0.00,WeatherDisplay:10.37,2013-06-22 19:07:00,
2013-06-22 15:12:00,92.4,76.0,30.06,NE,56,6.9,6.9,59,0.00,CLR,,0.00,WeatherDisplay:10.37,2013-06-22 19:12:00,
2013-06-22 15:17:00,92.9,75.9,30.06,ENE,65,5.8,5.8,58,0.00,CLR,,0.00,WeatherDisplay:10.37,2013-06-22 19:17:00,
2013-06-22 15:22:00,94.4,75.7,30.06,SE,130,3.5,3.5,55,0.00,CLR,,0.00,WeatherDisplay:10.37,2013-06-22 19:22:00,
2013-06-22 15:27:00,92.5,75.6,30.05,ENE,78,3.0,3.0,58,0.00,CLR,,0.00,WeatherDisplay:10.37,2013-06-22 19:27:00,
2013-06-22 15:32:00,91.9,74.5,30.05,ESE,110,3.5,3.5,57,0.00,CLR,,0.00,WeatherDisplay:10.37,2013-06-22 19:32:00,
2013-06-22 15:37:00,90.4,75.1,30.05,ESE,111,3.5,3.5,61,0.00,CLR,,0.00,WeatherDisplay:10.37,2013-06-22 19:37:00,
2013-06-22 15:42:00,90.2,74.9,30.05,NNE,30,3.5,3.5,61,0.00,CLR,,0.00,WeatherDisplay:10.37,2013-06-22 19:42:00,
2013-06-22 15:47:00,91.3,75.0,30.05,NE,43,5.8,5.8,59,0.00,CLR,,0.00,WeatherDisplay:10.37,2013-06-22 19:47:00,
2013-06-22 15:53:00,90.6,75.3,30.05,ENE,62,5.8,5.8,61,0.00,CLR,,0.00,WeatherDisplay:10.37,2013-06-22 19:53:00,
2013-06-22 15:58:00,91.3,75.5,30.05,NE,37,4.6,4.6,60,0.00,CLR,,0.00,WeatherDisplay:10.37,2013-06-22 19:58:00,
2013-06-22 16:03:00,93.4,76.9,30.05,NE,44,6.9,6.9,59,0.00,CLR,,0.00,WeatherDisplay:10.37,2013-06-22 20:03:00,
2013-06-22 16:08:00,93.3,75.8,30.05,NE,49,5.8,5.8,57,0.00,CLR,,0.00,WeatherDisplay:10.37,2013-06-22 20:08:00,
2013-06-22 16:13:00,91.6,74.7,30.05,NE,44,3.5,3.5,58,0.00,CLR,,0.00,WeatherDisplay:10.37,2013-06-22 20:13:00,
2013-06-22 16:18:00,90.3,75.0,30.05,SSE,147,3.5,3.5,61,0.00,CLR,,0.00,WeatherDisplay:10.37,2013-06-22 20:18:00,
2013-06-22 16:23:00,90.4,74.6,30.05,East,101,4.6,4.6,60,0.00,CLR,,0.00,WeatherDisplay:10.37,2013-06-22 20:23:00,
2013-06-22 16:28:00,89.9,74.6,30.05,East,90,3.5,3.5,61,0.00,CLR,,0.00,WeatherDisplay:10.37,2013-06-22 20:28:00,
2013-06-22 16:33:00,89.9,75.6,30.05,NE,55,5.8,5.8,63,0.00,CLR,,0.00,WeatherDisplay:10.37,2013-06-22 20:33:00,
2013-06-22 16:38:00,89.9,74.2,30.05,South,174,10.4,10.4,60,0.00,CLR,,0.00,WeatherDisplay:10.37,2013-06-22 20:38:00,
2013-06-22 16:43:00,90.0,75.2,30.05,NE,34,3.5,3.5,62,0.00,CLR,,0.00,WeatherDisplay:10.37,2013-06-22 20:43:00,
2013-06-22 16:48:00,89.7,74.5,30.05,NE,51,6.0,6.0,61,0.00,CLR,,0.00,WeatherDisplay:10.37,2013-06-22 20:48:00,
2013-06-22 16:53:00,89.2,74.5,30.04,ESE,120,4.6,4.6,62,0.00,CLR,,0.00,WeatherDisplay:10.37,2013-06-22 20:53:00,
2013-06-22 16:58:00,88.8,74.1,30.05,ESE,106,3.0,3.0,62,0.00,CLR,,0.00,WeatherDisplay:10.37,2013-06-22 20:58:00,
2013-06-22 17:03:00,88.1,74.4,30.05,East,98,6.9,6.9,64,0.00,CLR,,0.00,WeatherDisplay:10.37,2013-06-22 21:03:00,
2013-06-22 17:08:00,88.4,74.7,30.04,NE,41,2.3,2.3,64,0.00,CLR,,0.00,WeatherDisplay:10.37,2013-06-22 21:08:00,
2013-06-22 17:13:00,89.5,74.3,30.04,ESE,121,3.5,3.5,61,0.00,CLR,,0.00,WeatherDisplay:10.37,2013-06-22 21:13:00,
2013-06-22 17:18:00,88.5,73.8,30.04,NE,41,5.0,5.0,62,0.00,CLR,,0.00,WeatherDisplay:10.37,2013-06-22 21:18:00,
2013-06-22 17:23:00,88.5,73.8,30.04,NE,51,2.3,2.3,62,0.00,CLR,,0.00,WeatherDisplay:10.37,2013-06-22 21:23:00,
2013-06-22 17:28:00,89.4,75.1,30.04,NE,48,4.6,4.6,63,0.00,CLR,,0.00,WeatherDisplay:10.37,2013-06-22 21:28:00,
2013-06-22 17:33:00,89.8,75.0,30.04,NE,36,4.6,4.6,62,0.00,CLR,,0.00,WeatherDisplay:10.37,2013-06-22 21:33:00,
2013-06-22 17:38:00,89.8,75.0,30.04,NE,41,3.5,3.5,62,0.00,CLR,,0.00,WeatherDisplay:10.37,2013-06-22 21:38:00,
2013-06-22 17:43:00,89.1,74.9,30.04,East,79,4.0,4.0,63,0.00,CLR,,0.00,WeatherDisplay:10.37,2013-06-22 21:43:00,
2013-06-22 17:48:00,88.4,75.1,30.04,NE,50,4.6,4.6,65,0.00,CLR,,0.00,WeatherDisplay:10.37,2013-06-22 21:48:00,
2013-06-22 17:53:00,87.9,74.7,30.04,NE,50,3.5,3.5,65,0.00,CLR,,0.00,WeatherDisplay:10.37,2013-06-22 21:53:00,
2013-06-22 17:58:00,87.9,74.2,30.04,East,81,3.5,3.5,64,0.00,CLR,,0.00,WeatherDisplay:10.37,2013-06-22 21:58:00,
2013-06-22 18:03:00,87.3,74.1,30.03,NE,55,4.6,4.6,65,0.00,CLR,,0.00,WeatherDisplay:10.37,2013-06-22 22:03:00,
2013-06-22 18:08:00,87.1,74.8,30.03,NE,46,1.2,1.2,67,0.00,CLR,,0.00,WeatherDisplay:10.37,2013-06-22 22:08:00,
2013-06-22 18:13:00,87.4,75.1,30.03,ESE,122,6.9,6.9,67,0.00,CLR,,0.00,WeatherDisplay:10.37,2013-06-22 22:13:00,
2013-06-22 18:18:00,86.9,74.6,30.03,East,84,3.5,3.5,67,0.00,CLR,,0.00,WeatherDisplay:10.37,2013-06-22 22:18:00,
2013-06-22 18:23:00,86.5,74.2,30.03,SE,142,1.2,1.2,67,0.00,CLR,,0.00,WeatherDisplay:10.37,2013-06-22 22:23:00,
2013-06-22 18:28:00,86.1,74.3,30.04,SE,136,4.6,4.6,68,0.00,CLR,,0.00,WeatherDisplay:10.37,2013-06-22 22:28:00,
2013-06-22 18:33:00,86.0,73.8,30.03,ENE,63,4.6,4.6,67,0.00,CLR,,0.00,WeatherDisplay:10.37,2013-06-22 22:33:00,
2013-06-22 18:38:00,85.9,73.7,30.04,ENE,71,2.3,2.3,67,0.00,CLR,,0.00,WeatherDisplay:10.37,2013-06-22 22:38:00,
2013-06-22 18:43:00,85.9,73.2,30.03,NE,42,3.5,3.5,66,0.00,CLR,,0.00,WeatherDisplay:10.37,2013-06-22 22:43:00,
2013-06-22 18:48:00,86.1,73.9,30.03,ENE,76,9.2,9.2,67,0.00,CLR,,0.00,WeatherDisplay:10.37,2013-06-22 22:48:00,
2013-06-22 18:53:00,85.6,73.8,30.03,NE,56,5.0,5.0,68,0.00,CLR,,0.00,WeatherDisplay:10.37,2013-06-22 22:53:00,
2013-06-22 18:58:00,85.1,73.8,30.03,NE,47,3.0,3.0,69,0.00,CLR,,0.00,WeatherDisplay:10.37,2013-06-22 22:58:00,
2013-06-22 19:03:00,85.0,73.7,30.03,ENE,65,3.5,3.5,69,0.00,CLR,,0.00,WeatherDisplay:10.37,2013-06-22 23:03:00,
2013-06-22 19:08:00,84.8,73.9,30.03,ENE,67,3.5,3.5,70,0.00,CLR,,0.00,WeatherDisplay:10.37,2013-06-22 23:08:00,
2013-06-22 19:13:00,84.7,73.8,30.03,SE,134,1.2,1.5,70,0.00,CLR,,0.00,WeatherDisplay:10.37,2013-06-22 23:13:00,
2013-06-22 19:18:00,84.5,74.5,30.03,SE,144,6.9,6.9,72,0.00,CLR,,0.00,WeatherDisplay:10.37,2013-06-22 23:18:00,
2013-06-22 19:23:00,84.5,74.5,30.03,NE,34,3.5,0.0,72,0.00,CLR,,0.00,WeatherDisplay:10.37,2013-06-22 23:23:00,
2013-06-22 19:28:00,84.4,74.8,30.03,NE,43,2.0,2.0,73,0.00,CLR,,0.00,WeatherDisplay:10.37,2013-06-22 23:28:00,
2013-06-22 19:33:00,84.2,74.6,30.03,NE,56,2.3,2.3,73,0.00,CLR,,0.00,WeatherDisplay:10.37,2013-06-22 23:33:00,
2013-06-22 19:38:00,83.9,74.3,30.03,SE,128,6.9,6.9,73,0.00,CLR,,0.00,WeatherDisplay:10.37,2013-06-22 23:38:00,
2013-06-22 19:43:00,83.7,74.1,30.03,ENE,63,3.5,3.5,73,0.00,CLR,,0.00,WeatherDisplay:10.37,2013-06-22 23:43:00,
2013-06-22 19:48:00,83.5,74.3,30.03,NNE,33,3.5,3.5,74,0.00,CLR,,0.00,WeatherDisplay:10.37,2013-06-22 23:48:00,
2013-06-22 19:53:00,83.3,74.5,30.03,NNE,22,3.5,3.5,75,0.00,CLR,,0.00,WeatherDisplay:10.37,2013-06-22 23:53:00,
2013-06-22 19:58:00,83.2,74.4,30.04,NNE,33,3.5,3.5,75,0.00,CLR,,0.00,WeatherDisplay:10.37,2013-06-22 23:58:00,
2013-06-22 20:03:00,83.0,74.3,30.04,NNE,30,1.2,0.0,75,0.00,CLR,,0.00,WeatherDisplay:10.37,2013-06-23 00:03:00,
2013-06-22 20:08:00,82.9,74.2,30.04,East,101,3.5,3.5,75,0.00,CLR,,0.00,WeatherDisplay:10.37,2013-06-23 00:08:00,
2013-06-22 20:13:00,82.8,74.5,30.04,ENE,78,2.3,2.3,76,0.00,CLR,,0.00,WeatherDisplay:10.37,2013-06-23 00:13:00,
2013-06-22 20:18:00,82.7,74.4,30.04,ENE,61,2.3,2.3,76,0.00,CLR,,0.00,WeatherDisplay:10.37,2013-06-23 00:18:00,
2013-06-22 20:23:00,82.6,74.3,30.04,NE,36,3.5,3.5,76,0.00,CLR,,0.00,WeatherDisplay:10.37,2013-06-23 00:23:00,
2013-06-22 20:28:00,82.5,74.6,30.05,NE,37,2.3,2.3,77,0.00,CLR,,0.00,WeatherDisplay:10.37,2013-06-23 00:28:00,
2013-06-22 20:33:00,82.4,74.5,30.05,NE,42,2.3,2.3,77,0.00,CLR,,0.00,WeatherDisplay:10.37,2013-06-23 00:33:00,
2013-06-22 20:38:00,82.4,74.8,30.05,NE,42,0.0,0.0,78,0.00,CLR,,0.00,WeatherDisplay:10.37,2013-06-23 00:38:00,
2013-06-22 20:43:00,82.3,74.7,30.05,NE,42,0.0,0.0,78,0.00,CLR,,0.00,WeatherDisplay:10.37,2013-06-23 00:43:00,
2013-06-22 20:48:00,82.3,75.5,30.05,NE,42,3.5,3.5,80,0.00,CLR,,0.00,WeatherDisplay:10.37,2013-06-23 00:48:00,
2013-06-22 20:53:00,82.3,75.9,30.05,NE,41,1.2,1.2,81,0.00,CLR,,0.00,WeatherDisplay:10.37,2013-06-23 00:53:00,
2013-06-22 20:58:00,82.2,75.8,30.05,NE,41,3.5,3.5,81,0.00,CLR,,0.00,WeatherDisplay:10.37,2013-06-23 00:58:00,
2013-06-22 21:03:00,82.1,76.1,30.05,NE,42,3.5,0.0,82,0.00,CLR,,0.00,WeatherDisplay:10.37,2013-06-23 01:03:00,
2013-06-22 21:08:00,82.0,76.0,30.05,NE,48,3.0,3.0,82,0.00,CLR,,0.00,WeatherDisplay:10.37,2013-06-23 01:08:00,
2013-06-22 21:13:00,81.9,75.9,30.05,NNE,33,3.5,3.5,82,0.00,CLR,,0.00,WeatherDisplay:10.37,2013-06-23 01:13:00,
2013-06-22 21:18:00,81.8,75.8,30.06,NE,34,1.0,1.0,82,0.00,CLR,,0.00,WeatherDisplay:10.37,2013-06-23 01:18:00,
2013-06-22 21:23:00,81.7,75.7,30.06,North,360,3.5,0.0,82,0.00,CLR,,0.00,WeatherDisplay:10.37,2013-06-23 01:23:00,
2013-06-22 21:28:00,81.6,75.6,30.06,North,10,0.0,0.1,82,0.00,CLR,,0.00,WeatherDisplay:10.37,2013-06-23 01:28:00,
2013-06-22 21:33:00,81.6,75.6,30.06,NE,34,1.2,0.0,82,0.00,CLR,,0.00,WeatherDisplay:10.37,2013-06-23 01:33:00,
2013-06-22 21:38:00,81.6,75.6,30.07,NNE,33,1.2,0.0,82,0.00,CLR,,0.00,WeatherDisplay:10.37,2013-06-23 01:38:00,
2013-06-22 21:43:00,81.5,75.5,30.07,NE,34,0.0,0.0,82,0.00,CLR,,0.00,WeatherDisplay:10.37,2013-06-23 01:43:00,
2013-06-22 21:48:00,81.5,75.5,30.07,NE,34,0.0,0.0,82,0.00,CLR,,0.00,WeatherDisplay:10.37,2013-06-23 01:48:00,
2013-06-22 21:53:00,81.4,75.4,30.07,SSE,157,3.5,3.5,82,0.00,CLR,,0.00,WeatherDisplay:10.37,2013-06-23 01:53:00,
2013-06-22 21:58:00,81.4,75.0,30.06,SSE,154,1.2,1.2,81,0.00,CLR,,0.00,WeatherDisplay:10.37,2013-06-23 01:58:00,
2013-06-22 22:03:00,81.4,75.0,30.07,SSE,153,1.2,0.0,81,0.00,CLR,,0.00,WeatherDisplay:10.37,2013-06-23 02:03:00,
2013-06-22 22:08:00,81.4,74.6,30.07,SSE,151,0.0,0.0,80,0.00,CLR,,0.00,WeatherDisplay:10.37,2013-06-23 02:08:00,
2013-06-22 22:13:00,81.3,74.9,30.07,SSE,151,1.2,0.0,81,0.00,CLR,,0.00,WeatherDisplay:10.37,2013-06-23 02:13:00,
2013-06-22 22:18:00,81.3,74.9,30.07,SSE,150,0.0,0.0,81,0.00,CLR,,0.00,WeatherDisplay:10.37,2013-06-23 02:18:00,
2013-06-22 22:23:00,81.2,75.2,30.07,SSE,150,0.0,0.0,82,0.00,CLR,,0.00,WeatherDisplay:10.37,2013-06-23 02:23:00,
2013-06-22 22:28:00,81.2,75.2,30.07,SSE,150,1.0,0.0,82,0.00,CLR,,0.00,WeatherDisplay:10.37,2013-06-23 02:28:00,
2013-06-22 22:33:00,81.2,75.5,30.07,SSE,150,0.0,0.0,83,0.00,CLR,,0.00,WeatherDisplay:10.37,2013-06-23 02:33:00,
2013-06-22 22:38:00,81.3,75.6,30.07,SSE,150,1.2,0.0,83,0.00,CLR,,0.00,WeatherDisplay:10.37,2013-06-23 02:38:00,
2013-06-22 22:43:00,81.3,76.0,30.08,SSE,150,0.0,0.0,84,0.00,CLR,,0.00,WeatherDisplay:10.37,2013-06-23 02:43:00,
2013-06-22 22:48:00,81.4,76.1,30.08,SSE,149,0.0,0.0,84,0.00,CLR,,0.00,WeatherDisplay:10.37,2013-06-23 02:48:00,
2013-06-22 22:53:00,81.4,76.1,30.08,SSE,150,0.0,0.0,84,0.00,CLR,,0.00,WeatherDisplay:10.37,2013-06-23 02:53:00,
2013-06-22 22:58:00,81.5,76.2,30.08,SSE,148,1.2,1.2,84,0.00,CLR,,0.00,WeatherDisplay:10.37,2013-06-23 02:58:00,
2013-06-22 23:03:00,81.6,75.9,30.08,SSE,150,3.5,0.0,83,0.00,CLR,,0.00,WeatherDisplay:10.37,2013-06-23 03:03:00,
2013-06-22 23:08:00,81.7,76.0,30.08,SSE,154,3.5,3.5,83,0.00,CLR,,0.00,WeatherDisplay:10.37,2013-06-23 03:08:00,
2013-06-22 23:13:00,81.8,76.1,30.08,SSE,152,3.5,3.5,83,0.00,CLR,,0.00,WeatherDisplay:10.37,2013-06-23 03:13:00,
2013-06-22 23:18:00,81.8,75.8,30.08,SSE,155,3.5,3.5,82,0.00,CLR,,0.00,WeatherDisplay:10.37,2013-06-23 03:18:00,
2013-06-22 23:23:00,81.8,75.8,30.09,SSE,153,3.5,0.0,82,0.00,CLR,,0.00,WeatherDisplay:10.37,2013-06-23 03:23:00,
2013-06-22 23:28:00,81.8,75.8,30.09,SSE,155,2.3,2.3,82,0.00,CLR,,0.00,WeatherDisplay:10.37,2013-06-23 03:28:00,
2013-06-22 23:33:00,81.7,75.7,30.09,SSE,153,2.3,2.3,82,0.00,CLR,,0.00,WeatherDisplay:10.37,2013-06-23 03:33:00,
2013-06-22 23:38:00,81.7,75.7,30.09,SSE,153,3.0,3.0,82,0.00,CLR,,0.00,WeatherDisplay:10.37,2013-06-23 03:38:00,
2013-06-22 23:43:00,81.7,75.3,30.09,SSE,158,4.6,4.6,81,0.00,CLR,,0.00,WeatherDisplay:10.37,2013-06-23 03:43:00,
2013-06-22 23:48:00,81.7,75.3,30.09,SSE,150,6.9,0.0,81,0.00,CLR,,0.00,WeatherDisplay:10.37,2013-06-23 03:48:00,
2013-06-22 23:53:00,81.8,75.8,30.09,SSE,150,3.5,3.5,82,0.00,CLR,,0.00,WeatherDisplay:10.37,2013-06-23 03:53:00,
2013-06-22 23:58:00,81.8,75.8,30.09,SE,146,6.9,6.9,82,0.00,CLR,,0.00,WeatherDisplay:10.37,2013-06-23 03:58:00,